Bad Axe, MI

4:33 AM EDT on July 30, 2016 (GMT -0400)
Huron County Memorial

Weather History for KBAX - June, 2013

Change the Weather History Date:

Thursday, June 6, 2013

  Actual Average (KP58) Record (KP58)
Temperature  
Mean Temperature 55 °F -  
Max Temperature 59 °F 63 °F 91 °F (2008)
Min Temperature 51 °F 49 °F 42 °F (2007)
Degree Days  
Heating Degree Days 10    
Growing Degree Days 5 (Base 50)    
Moisture  
Dew Point 49 °F    
Average Humidity 79    
Maximum Humidity 94    
Minimum Humidity 67    
Precipitation  
Precipitation 0.00 in - - ()
Sea Level Pressure  
Sea Level Pressure 29.98 in    
Wind  
Wind Speed 7 mph (NE)    
Max Wind Speed 13 mph    
Max Gust Speed 17 mph    
Visibility 10 miles    
Events Rain    
Averages and records for this station are not official NWS values.
T = Trace of Precipitation, MM = Missing Value Source: NWS Daily Summary

Daily Weather History Graph

Daily Weather History Graph

Search for Another Location

Airport or City:

Trip Planner

Search our weather history database for the weather conditions in past years. The results will help you decide how hot, cold, wet, or windy it might be!

Date:

Astronomy

Jun. 06, 2013 Rise Set
Actual Time 5:50 AM EDT 9:11 PM EDT
Civil Twilight 5:15 AM EDT 9:46 PM EDT
Nautical Twilight 4:28 AM EDT 10:33 PM EDT
Astronomical Twilight 3:31 AM EDT 11:30 PM EDT
Moon 4:35 AM EDT (6/6) 7:28 PM EDT (6/6)
Length of Visible Light 16h 31m
Length of Day
15h 20m
Waning Crescent, 4% of the Moon is Illuminated
Jun 6
Waning Crescent
Jun 8
New
Jun 16
First Quarter
Jun 23
Full
Jun 30
Last Quarter

Hourly Weather History & Observations

Time (EDT) Temp. Dew Point Humidity Pressure Visibility Wind Dir Wind Speed Gust Speed Precip Events Conditions
12:14 AM 52.9 °F 47.3 °F 81% 30.08 in 10.0 mi ENE 11.5 mph 16.1 mph N/A   Overcast
12:35 AM 53.1 °F 47.7 °F 82% 30.07 in 10.0 mi ENE 6.9 mph - N/A   Overcast
12:54 AM 52.7 °F 48.2 °F 85% 30.07 in 10.0 mi ENE 4.6 mph - N/A Rain Light Rain
1:14 AM 52.7 °F 48.4 °F 85% 30.07 in 10.0 mi East 5.8 mph - N/A   Drizzle
1:35 AM 52.9 °F 48.4 °F 85% 30.07 in 10.0 mi East 4.6 mph - N/A Rain Light Rain
1:54 AM 52.9 °F 48.4 °F 85% 30.07 in 10.0 mi East 4.6 mph - N/A Rain Light Rain
2:14 AM 52.9 °F 48.4 °F 85% 30.07 in 10.0 mi Calm Calm - N/A Rain Rain
2:35 AM 53.1 °F 48.7 °F 85% 30.05 in 10.0 mi ESE 5.8 mph - N/A Rain Light Rain
2:54 AM 53.8 °F 48.4 °F 82% 30.04 in 10.0 mi East 5.8 mph - N/A   Overcast
3:14 AM 54.0 °F 48.2 °F 81% 30.03 in 10.0 mi Calm Calm - N/A   Overcast
3:35 AM 53.8 °F 48.4 °F 82% 30.03 in 10.0 mi Calm Calm - N/A   Overcast
3:54 AM 54.0 °F 48.6 °F 82% 30.02 in 10.0 mi Calm Calm - N/A   Overcast
4:14 AM 54.0 °F 48.4 °F 81% 30.02 in 10.0 mi North 4.6 mph - N/A   Overcast
4:35 AM 53.6 °F 49.1 °F 85% 30.01 in 10.0 mi ENE 3.5 mph - N/A   Overcast
4:54 AM 53.6 °F 48.7 °F 84% 30.00 in 10.0 mi ENE 4.6 mph - N/A   Overcast
5:15 AM 53.6 °F 48.4 °F 82% 30.00 in 10.0 mi ENE 5.8 mph - N/A   Overcast
5:34 AM 53.1 °F 48.2 °F 84% 30.00 in 10.0 mi ENE 3.5 mph - N/A   Overcast
5:54 AM 52.7 °F 47.5 °F 82% 30.00 in 10.0 mi ENE 5.8 mph - N/A   Light Drizzle
6:15 AM 52.2 °F 47.5 °F 84% 30.00 in 10.0 mi ENE 4.6 mph - N/A   Overcast
6:35 AM 52.0 °F 47.3 °F 84% 30.00 in 10.0 mi NE 3.5 mph - N/A   Overcast
6:54 AM 52.2 °F 47.5 °F 84% 29.99 in 10.0 mi ENE 4.6 mph - N/A   Overcast
7:15 AM 52.9 °F 47.8 °F 83% 29.99 in 10.0 mi NE 4.6 mph - N/A   Overcast
7:34 AM 53.1 °F 47.7 °F 82% 29.99 in 10.0 mi ENE 5.8 mph - N/A   Overcast
7:54 AM 53.6 °F 47.8 °F 81% 29.98 in 10.0 mi NE 6.9 mph - N/A   Overcast
8:15 AM 54.1 °F 47.5 °F 78% 29.97 in 10.0 mi NE 6.9 mph - N/A   Overcast
8:34 AM 55.2 °F 47.3 °F 75% 29.98 in 10.0 mi NE 4.6 mph - N/A   Overcast
8:54 AM 56.1 °F 48.2 °F 75% 29.97 in 10.0 mi NE 8.1 mph - N/A   Overcast
9:15 AM 56.5 °F 47.7 °F 72% 29.97 in 10.0 mi ENE 10.4 mph - N/A   Overcast
9:34 AM 58.1 °F 48.9 °F 71% 29.97 in 10.0 mi ENE 8.1 mph - N/A   Mostly Cloudy
9:55 AM 58.6 °F 48.4 °F 69% 29.96 in 10.0 mi NE 6.9 mph - N/A   Scattered Clouds
10:14 AM 59.4 °F 48.6 °F 67% 29.96 in 10.0 mi NE 6.9 mph - N/A   Clear
10:35 AM 59.5 °F 49.6 °F 70% 29.96 in 10.0 mi NNE 9.2 mph - N/A   Clear
10:55 AM 58.6 °F 48.2 °F 68% 29.97 in 10.0 mi NE 6.9 mph - N/A   Clear
11:14 AM 58.5 °F 48.9 °F 71% 29.97 in 10.0 mi NNE 11.5 mph 16.1 mph N/A   Clear
11:35 AM 57.9 °F 48.0 °F 70% 29.97 in 10.0 mi NE 8.1 mph - N/A   Clear
11:55 AM 58.3 °F 48.2 °F 69% 29.98 in 10.0 mi NE 9.2 mph - N/A   Scattered Clouds
12:14 PM 59.0 °F 49.1 °F 70% 29.98 in 10.0 mi NNE 9.2 mph - N/A   Mostly Cloudy
12:35 PM 57.6 °F 48.0 °F 70% 29.98 in 10.0 mi ENE 9.2 mph - N/A   Overcast
12:55 PM 57.2 °F 47.8 °F 71% 29.97 in 10.0 mi NE 8.1 mph - N/A   Overcast
1:14 PM 56.5 °F 48.6 °F 75% 29.97 in 10.0 mi NE 8.1 mph - N/A Rain Light Rain
1:35 PM 56.5 °F 48.9 °F 76% 29.97 in 10.0 mi NE 8.1 mph - N/A Rain Light Rain
1:55 PM 57.2 °F 49.5 °F 75% 29.97 in 10.0 mi NE 10.4 mph - N/A   Overcast
2:14 PM 57.7 °F 50.2 °F 76% 29.96 in 10.0 mi NE 10.4 mph - N/A   Mostly Cloudy
2:35 PM 56.3 °F 48.4 °F 75% 29.96 in 10.0 mi NE 6.9 mph - N/A   Overcast
2:55 PM 55.9 °F 47.8 °F 74% 29.95 in 10.0 mi NE 8.1 mph - N/A   Overcast
3:14 PM 56.3 °F 48.4 °F 75% 29.94 in 10.0 mi NNE 8.1 mph - N/A   Overcast
3:35 PM 56.7 °F 48.4 °F 74% 29.95 in 10.0 mi NE 12.7 mph 17.3 mph N/A   Overcast
3:55 PM 57.2 °F 49.3 °F 75% 29.94 in 10.0 mi NNE 10.4 mph 16.1 mph N/A Rain Light Rain
4:14 PM 57.2 °F 49.8 °F 76% 29.94 in 10.0 mi NNE 9.2 mph - N/A   Light Drizzle
4:35 PM 57.2 °F 48.9 °F 74% 29.95 in 10.0 mi NNE 8.1 mph - N/A   Overcast
4:54 PM 57.0 °F 49.1 °F 75% 29.94 in 10.0 mi NNE 10.4 mph 16.1 mph N/A   Overcast
5:15 PM 56.8 °F 49.1 °F 75% 29.94 in 10.0 mi NE 9.2 mph - N/A Rain Light Rain
5:35 PM 57.6 °F 49.5 °F 74% 29.94 in 10.0 mi NE 8.1 mph - N/A   Mostly Cloudy
5:54 PM 57.7 °F 49.6 °F 74% 29.93 in 10.0 mi ENE 9.2 mph 16.1 mph N/A   Mostly Cloudy
6:15 PM 57.0 °F 49.5 °F 76% 29.94 in 10.0 mi ENE 4.6 mph - N/A   Overcast
6:35 PM 57.0 °F 49.3 °F 75% 29.94 in 10.0 mi NE 8.1 mph - N/A   Overcast
6:54 PM 56.5 °F 49.1 °F 76% 29.94 in 10.0 mi ENE 8.1 mph - N/A   Overcast
7:15 PM 56.7 °F 49.3 °F 76% 29.95 in 10.0 mi NNE 4.6 mph - N/A   Overcast
7:35 PM 56.5 °F 49.6 °F 78% 29.95 in 10.0 mi NE 5.8 mph - N/A   Light Drizzle
7:54 PM 55.9 °F 49.5 °F 79% 29.95 in 10.0 mi NE 9.2 mph - N/A   Light Drizzle
8:15 PM 56.3 °F 50.2 °F 80% 29.94 in 10.0 mi NE 8.1 mph - N/A   Scattered Clouds
8:35 PM 56.7 °F 50.4 °F 79% 29.94 in 10.0 mi ENE 9.2 mph 16.1 mph N/A   Mostly Cloudy
8:54 PM 55.6 °F 50.0 °F 81% 29.93 in 10.0 mi ENE 8.1 mph - N/A   Scattered Clouds
9:15 PM 53.8 °F 49.3 °F 85% 29.94 in 10.0 mi NE 5.8 mph - N/A   Scattered Clouds
9:35 PM 52.7 °F 49.3 °F 88% 29.94 in 10.0 mi ENE 4.6 mph - N/A   Scattered Clouds
9:55 PM 52.7 °F 49.6 °F 89% 29.94 in 10.0 mi ENE 5.8 mph - N/A   Mostly Cloudy
10:15 PM 52.9 °F 49.6 °F 89% 29.93 in 10.0 mi NE 5.8 mph - N/A   Overcast
10:35 PM 52.7 °F 49.5 °F 89% 29.93 in 10.0 mi ENE 4.6 mph - N/A   Mostly Cloudy
10:55 PM 52.2 °F 49.5 °F 91% 29.95 in 10.0 mi NE 3.5 mph - N/A   Mostly Cloudy
11:15 PM 51.8 °F 49.3 °F 91% 29.95 in 10.0 mi ENE 3.5 mph - N/A   Mostly Cloudy
11:35 PM 51.4 °F 49.5 °F 93% 29.94 in 10.0 mi NE 5.8 mph - N/A   Clear
11:54 PM 51.1 °F 49.3 °F 94% 29.93 in 10.0 mi ENE 8.1 mph - N/A   Clear